Weather reports worldwide

Advertisment
Northolt, United Kingdom (3672): temperature & dewpoint: 30.06.2020 06:00:00 - 06.07.2020 06:00:00 (BST)Northolt, United Kingdom (3672): temperature -20cm & temperature -100cm: 30.06.2020 06:00:00 - 06.07.2020 06:00:00 (BST)Northolt, United Kingdom (3672): wind speed & gusts: 30.06.2020 06:00:00 - 06.07.2020 06:00:00 (BST)Northolt, United Kingdom (3672): wind direction: 30.06.2020 06:00:00 - 06.07.2020 06:00:00 (BST)Northolt, United Kingdom (3672): reduced air pressure: 30.06.2020 06:00:00 - 06.07.2020 06:00:00 (BST)Northolt, United Kingdom (3672): visibility: 30.06.2020 06:00:00 - 06.07.2020 06:00:00 (BST)Northolt, United Kingdom (3672): precipitation: 30.06.2020 06:00:00 - 06.07.2020 06:00:00 (BST)
Date & Time tt [°C] td [°C] tt -20cm [°C] tt -100cm [°C] ff [km/h] ff [kn] fx [km/h] fx [kn] dd ppp [hPa] vv [km] rr [mm]
06.07.2020 06:00:00 12,0 8,0 - - 18 10 - - W 1016,3 29 0,0
06.07.2020 05:00:00 11,9 8,0 - - 18 10 - - W 1015,7 10 0,0
06.07.2020 04:00:00 12,0 8,3 - - 21 11 - - W 1015,1 25 0,0
06.07.2020 03:00:00 11,8 8,7 - - 16 9 - - WSW 1014,8 10 0,0
06.07.2020 02:00:00 12,3 8,8 - - 15 8 - - W 1014,9 10 0,0
06.07.2020 01:00:00 12,9 8,6 - - 22 12 - - W 1014,6 17 0,0
06.07.2020 00:00:00 13,3 8,3 - - 29 16 48 26 W 1014,2 10 0,0
05.07.2020 23:00:00 14,0 8,0 - - 28 15 48 26 W 1013,8 10 0,0
05.07.2020 22:00:00 14,6 7,5 - - 34 18 55 30 W 1013,7 10 0,0
05.07.2020 21:00:00 15,7 6,8 - - 26 14 59 32 W 1013,1 35 0,0
05.07.2020 20:00:00 16,9 5,5 - - 39 21 63 34 W 1012,6 40 0,0
05.07.2020 19:00:00 18,0 6,6 - - 39 21 70 38 W 1012,3 10 0,0
05.07.2020 18:00:00 18,8 5,6 - - 42 23 63 34 W 1011,9 45 0,0
05.07.2020 17:00:00 19,4 6,8 - - 39 21 57 31 W 1012,0 10 0,0
05.07.2020 16:00:00 18,4 6,7 - - 42 23 65 35 W 1012,1 10 0,0
05.07.2020 15:00:00 20,5 7,8 - - 37 20 57 31 W 1011,7 10 0,0
05.07.2020 14:00:00 20,4 7,4 - - 39 21 59 32 W 1011,4 10 0,0
05.07.2020 13:00:00 20,1 8,3 - - 35 19 55 30 W 1011,0 10 0,0
05.07.2020 12:00:00 19,9 8,8 - - 35 19 59 32 W 1010,7 10 0,0
05.07.2020 11:00:00 19,8 10,4 - - 35 19 57 31 W 1010,3 10 0,0
05.07.2020 10:00:00 18,8 10,7 18,2 16,5 35 19 55 30 W 1010,4 10 0,0
05.07.2020 09:00:00 17,8 12,1 - - 35 19 65 35 W 1009,8 10 0,0
05.07.2020 08:00:00 17,4 14,9 - - 26 14 52 28 W 1009,2 55 0,2
05.07.2020 07:00:00 17,3 14,6 - - 29 16 46 25 WSW 1008,2 10 0,0
05.07.2020 06:00:00 16,9 14,5 - - 26 14 46 25 SW 1008,1 55 0,0
05.07.2020 05:00:00 17,0 14,6 - - 28 15 50 27 WSW 1008,3 10 0,0
05.07.2020 04:00:00 17,1 14,8 - - 34 18 52 28 WSW 1008,1 10 0,0
05.07.2020 03:00:00 16,8 14,6 - - 26 14 - - SW 1008,3 10 0,0
05.07.2020 02:00:00 17,0 14,5 - - 26 14 - - SW 1009,2 10 0,0
05.07.2020 01:00:00 17,4 14,6 - - 29 16 - - SW 1009,7 30 0,0
05.07.2020 00:00:00 17,9 15,0 - - 24 13 - - SW 1009,9 10 0,0
04.07.2020 23:00:00 17,8 15,4 - - 22 12 - - WSW 1010,1 30 0,0
04.07.2020 22:00:00 18,0 15,6 - - 22 12 - - WSW 1010,3 10 0,0
04.07.2020 21:00:00 17,8 15,9 - - 21 11 - - WSW 1010,1 8 0,0
04.07.2020 20:00:00 18,1 15,7 - - 18 10 - - WSW 1010,2 8 0,0
04.07.2020 19:00:00 18,8 15,5 - - 26 14 - - WSW 1010,1 10 0,0
04.07.2020 18:00:00 18,7 15,8 - - 22 12 - - SW 1010,2 10 0,0
04.07.2020 17:00:00 19,6 15,8 - - 26 14 - - WSW 1010,1 10 0,0
04.07.2020 16:00:00 20,5 15,8 - - 29 16 50 27 WSW 1010,1 10 0,0
04.07.2020 15:00:00 19,7 15,8 - - 28 15 - - WSW 1010,2 10 0,0
04.07.2020 14:00:00 19,5 15,3 - - 24 13 - - WSW 1010,9 10 0,0
04.07.2020 13:00:00 19,8 15,3 - - 28 15 - - SW 1010,4 10 0,0
04.07.2020 12:00:00 19,2 14,9 - - 24 13 - - SW 1010,8 10 0,0
04.07.2020 11:00:00 19,0 14,9 - - 26 14 - - WSW 1010,6 10 0,0
04.07.2020 10:00:00 18,5 15,3 18,2 16,5 24 13 - - WSW 1010,3 10 0,0
04.07.2020 09:00:00 17,6 15,5 - - 22 12 - - SW 1010,5 10 0,0
04.07.2020 08:00:00 16,8 15,2 - - 21 11 - - SW 1010,7 45 0,0
04.07.2020 07:00:00 16,2 15,1 - - 18 10 - - SW 1010,7 40 0,0
04.07.2020 06:00:00 15,6 14,9 - - 16 9 - - SW 1010,6 10 0,0
04.07.2020 05:00:00 15,2 14,6 - - 21 11 - - SW 1011,2 17 0,8
04.07.2020 04:00:00 15,1 14,3 - - 22 12 - - SW 1011,3 3,5 0,6
04.07.2020 03:00:00 15,1 14,2 - - 18 10 - - SW 1012,1 5 0,4
04.07.2020 02:00:00 15,2 13,9 - - 18 10 - - SW 1012,6 4,4 0,0
04.07.2020 01:00:00 15,2 13,4 - - 22 12 - - SW 1013,1 28 0,0
04.07.2020 00:00:00 14,9 13,1 - - 24 13 - - SW 1013,6 28 0,0
03.07.2020 23:00:00 14,6 13,0 - - 21 11 - - SW 1013,9 10 0,2
03.07.2020 22:00:00 14,4 12,9 - - 21 11 - - WSW 1014,4 10 0,4
03.07.2020 21:00:00 14,4 12,9 - - 18 10 - - SW 1014,4 7 0,8
03.07.2020 20:00:00 15,1 12,3 - - 22 12 - - SW 1014,7 14 0,4
03.07.2020 19:00:00 16,7 11,4 - - 29 16 50 27 WSW 1014,8 10 0,0
03.07.2020 18:00:00 19,1 10,4 - - 29 16 46 25 SW 1014,5 10 0,0
03.07.2020 17:00:00 20,0 9,9 - - 26 14 - - SW 1014,7 10 0,0
03.07.2020 16:00:00 20,2 10,2 - - 26 14 52 28 SW 1014,8 10 0,0
03.07.2020 15:00:00 20,4 9,9 - - 31 17 48 26 WSW 1015,1 10 0,0
03.07.2020 14:00:00 21,1 10,8 - - 26 14 46 25 WSW 1015,3 10 0,0
03.07.2020 13:00:00 20,3 10,1 - - 29 16 - - WSW 1015,9 10 0,0
03.07.2020 12:00:00 18,5 9,4 - - 24 13 - - SW 1016,0 10 0,0
03.07.2020 11:00:00 17,8 10,1 - - 31 17 - - WSW 1016,5 10 0,0
03.07.2020 10:00:00 16,6 10,0 18,2 16,5 24 13 - - WSW 1016,4 40 0,0
03.07.2020 09:00:00 15,7 9,9 - - 29 16 - - WSW 1016,6 30 0,0
03.07.2020 08:00:00 14,0 10,7 - - 16 9 - - WSW 1016,5 10 0,0
03.07.2020 07:00:00 13,0 10,7 - - 15 8 - - WSW 1016,6 10 0,0
03.07.2020 06:00:00 12,0 10,7 - - 8 4 - - SW 1016,9 28 0,0
03.07.2020 05:00:00 11,8 10,6 - - 11 6 - - WSW 1016,6 10 0,0
03.07.2020 04:00:00 12,3 10,8 - - 11 6 - - W 1016,3 10 0,0
03.07.2020 03:00:00 13,1 11,5 - - 16 9 - - W 1016,3 10 0,0
03.07.2020 02:00:00 14,1 12,9 - - 9 5 - - WSW 1016,0 10 0,0
03.07.2020 01:00:00 15,1 13,2 - - 11 6 - - W 1015,7 28 0,0
03.07.2020 00:00:00 16,4 13,4 - - 9 5 - - W 1015,5 35 0,0
02.07.2020 23:00:00 16,6 12,9 - - 9 5 - - WNW 1015,4 30 0,0
02.07.2020 22:00:00 16,7 12,7 - - 8 4 - - WNW 1015,0 45 0,0
02.07.2020 21:00:00 17,3 12,9 - - 5 3 - - WNW 1014,3 10 0,0
02.07.2020 20:00:00 17,0 14,0 - - 8 4 - - NNW 1013,9 40 0,0
02.07.2020 19:00:00 17,2 13,3 - - 11 6 - - NNE 1013,3 10 0,0
02.07.2020 18:00:00 20,2 11,9 - - 22 12 - - W 1012,3 40 0,0
02.07.2020 17:00:00 20,5 12,7 - - 26 14 - - W 1012,0 10 0,0
02.07.2020 16:00:00 20,3 14,0 - - 22 12 - - W 1011,8 10 0,0
02.07.2020 15:00:00 18,4 12,7 - - 21 11 - - W 1011,6 10 0,0
02.07.2020 14:00:00 16,6 14,2 - - 24 13 - - W 1011,6 10 0,0
02.07.2020 13:00:00 15,3 13,9 - - 21 11 - - W 1011,0 10 1,6
02.07.2020 12:00:00 17,6 12,9 - - 21 11 - - WSW 1010,6 35 1,6
02.07.2020 11:00:00 16,9 11,7 - - 21 11 - - W 1010,4 10 0,0
02.07.2020 10:00:00 16,1 11,7 18,2 16,7 22 12 - - WSW 1010,3 10 0,0
02.07.2020 09:00:00 15,3 11,1 - - 22 12 - - WSW 1009,9 10 0,0
02.07.2020 08:00:00 14,7 11,0 - - 16 9 - - W 1009,7 10 0,0
02.07.2020 07:00:00 13,5 10,8 - - 13 7 - - WSW 1009,4 40 0,0
02.07.2020 06:00:00 12,1 10,2 - - 13 7 - - WSW 1009,2 35 0,0
02.07.2020 05:00:00 11,3 9,7 - - 11 6 - - WSW 1009,1 30 0,0
02.07.2020 04:00:00 11,5 9,7 - - 11 6 - - WSW 1008,9 10 0,0
02.07.2020 03:00:00 12,0 9,4 - - 9 5 - - SW 1008,8 40 0,0
02.07.2020 02:00:00 13,1 9,2 - - 9 5 - - W 1008,8 10 0,0
02.07.2020 01:00:00 14,7 9,5 - - 16 9 - - W 1008,5 10 0,0
02.07.2020 00:00:00 15,5 13,3 - - 13 7 - - WSW 1008,2 10 0,0
01.07.2020 23:00:00 15,8 12,9 - - 11 6 - - WSW 1007,9 10 0,0
01.07.2020 22:00:00 16,1 12,7 - - 13 7 - - WSW 1007,5 10 0,0
01.07.2020 21:00:00 16,5 13,5 - - 13 7 - - WSW 1007,3 10 0,0
01.07.2020 20:00:00 16,8 13,4 - - 22 12 - - WSW 1007,1 10 0,0
01.07.2020 19:00:00 18,3 12,5 - - 22 12 - - WSW 1006,6 40 0,0
01.07.2020 18:00:00 19,8 12,7 - - 22 12 - - WSW 1006,3 40 0,0
01.07.2020 17:00:00 19,8 12,1 - - 28 15 - - W 1006,0 10 0,0
01.07.2020 16:00:00 19,9 13,9 - - 22 12 - - WSW 1005,8 10 0,0
01.07.2020 15:00:00 19,8 15,1 - - 18 10 - - SW 1005,5 10 0,0
01.07.2020 14:00:00 19,0 15,9 - - 18 10 - - WSW 1005,4 45 0,4
01.07.2020 13:00:00 17,2 12,9 - - 31 17 - - W 1005,4 10 0,0
01.07.2020 12:00:00 18,7 12,6 - - 21 11 - - W 1005,1 10 0,0
01.07.2020 11:00:00 19,4 11,4 - - 22 12 - - WSW 1004,9 40 0,0
01.07.2020 10:00:00 18,4 11,6 18,0 16,7 22 12 - - WSW 1005,0 10 0,0
01.07.2020 09:00:00 17,6 11,6 - - 21 11 - - W 1005,0 10 0,0
01.07.2020 08:00:00 15,9 11,8 - - 18 10 - - WSW 1004,7 10 0,0
01.07.2020 07:00:00 15,0 11,8 - - 18 10 - - WSW 1004,4 10 0,0
01.07.2020 06:00:00 14,5 12,3 - - 13 7 - - SW 1004,2 30 0,0
01.07.2020 05:00:00 14,6 12,2 - - 15 8 - - WSW 1004,2 10 0,0
01.07.2020 04:00:00 15,4 11,9 - - 16 9 - - WSW 1004,3 40 0,0
01.07.2020 03:00:00 16,0 12,7 - - 16 9 - - WSW 1004,3 10 0,0
01.07.2020 02:00:00 16,4 12,3 - - 22 12 - - WSW 1004,6 10 0,0
01.07.2020 01:00:00 16,8 12,9 - - 18 10 - - WSW 1005,0 45 0,0
01.07.2020 00:00:00 17,1 14,0 - - 18 10 - - WSW 1005,2 35 0,0
30.06.2020 23:00:00 17,3 14,4 - - 16 9 - - SW 1005,3 10 0,0
30.06.2020 22:00:00 17,4 14,9 - - 13 7 - - SW 1005,5 10 0,0
30.06.2020 21:00:00 17,8 15,0 - - 16 9 - - SW 1005,2 10 0,0
30.06.2020 20:00:00 18,4 14,9 - - 15 8 - - SW 1005,3 10 0,0
30.06.2020 19:00:00 18,5 14,5 - - 16 9 - - SW 1005,4 10 0,0
30.06.2020 18:00:00 17,7 14,2 - - 18 10 - - WSW 1005,8 10 0,0
30.06.2020 17:00:00 18,1 14,2 - - 21 11 - - SW 1006,0 10 0,0
30.06.2020 16:00:00 17,9 13,7 - - 18 10 - - SW 1006,5 10 0,0
30.06.2020 15:00:00 18,4 14,1 - - 18 10 - - WSW 1006,6 10 0,2
30.06.2020 14:00:00 16,8 13,1 - - 18 10 - - W 1007,0 10 0,0
30.06.2020 13:00:00 17,3 11,7 - - 16 9 - - WSW 1007,1 10 0,0
30.06.2020 12:00:00 15,1 10,6 - - 11 6 - - W 1007,5 25 0,0
30.06.2020 11:00:00 14,2 10,7 - - 11 6 - - WSW 1007,7 20 0,0
30.06.2020 10:00:00 15,1 10,7 18,0 16,7 15 8 - - SW 1007,6 15 0,0
30.06.2020 09:00:00 15,7 10,5 - - 15 8 - - SW 1007,8 30 0,0
30.06.2020 08:00:00 14,2 10,4 - - 15 8 - - WSW 1008,3 10 0,0
30.06.2020 07:00:00 13,8 10,0 - - 16 9 - - WSW 1008,2 35 0,0
30.06.2020 06:00:00 12,7 8,8 - - 16 9 - - WSW 1008,2 40 0,0

tt = temperature
td = dewpoint
tt -20cm = temperature -20cm
tt -100cm = temperature -100cm
ff = wind speed
fx = gusts
dd = wind direction
ppp = reduced air pressure
vv = visibility
rr = precipitation

Next stations